Weather History for Abilene Dyess, TX

Change the Weather History Date:

Tuesday, September 3, 2013

  Actual Average Record
Temperature  
Mean Temperature 82 °F -  
Max Temperature 97 °F 89 °F 105 °F (2000)
Min Temperature 67 °F 69 °F 60 °F (2003)
Cooling Degree Days 17    
Growing Degree Days 32 (Base 50)    
Moisture  
Dew Point 60 °F    
Average Humidity 49    
Maximum Humidity 77    
Minimum Humidity 26    
Precipitation  
Precipitation 0.00 in - - ()
Sea Level Pressure  
Sea Level Pressure 29.88 in    
Wind  
Wind Speed 4 mph (NNE)    
Max Wind Speed 12 mph    
Max Gust Speed -    
Visibility 10 miles    
Events      
Averages and records for this station are not official NWS values.
T = Trace of Precipitation, MM = Missing Value Source: NWS Daily Summary

Daily Weather History Graph

Daily Weather History Graph

Search for Another Location

Airport:

Trip Planner

Search our weather history database for the weather conditions in past years. The results will help you decide how hot, cold, wet, or windy it might be!

Date:

Astronomy

Sep. 03, 2013 Rise Set
Actual Time 7:15 AM CDT 8:00 PM CDT
Civil Twilight 6:50 AM CDT 8:25 PM CDT
Nautical Twilight 6:21 AM CDT 8:55 PM CDT
Astronomical Twilight 5:51 AM CDT 9:25 PM CDT
Moon 5:34 AM CDT (9/3) 6:48 PM CDT (9/3)
Length of Visible Light 13h 34m
Length of Day
12h 45m
Waning Crescent, 3% of the Moon is Illuminated
Sep 3
Waning Crescent
Sep 5
New
Sep 12
First Quarter
Sep 19
Full
Sep 26
Last Quarter

Hourly Weather History & Observations

Time (CDT) Temp. Heat Index Dew Point Humidity Pressure Visibility Wind Dir Wind Speed Gust Speed Precip Events Conditions
12:58 AM 76.6 °F - 64.2 °F 65% 29.86 in 10.0 mi West 2.3 mph - N/A   Clear
1:58 AM 74.8 °F - 64.0 °F 69% 29.87 in 10.0 mi West 2.3 mph - N/A   Clear
2:58 AM 72.5 °F - 62.8 °F 71% 29.87 in 10.0 mi Calm Calm - N/A   Clear
3:58 AM 71.8 °F - 62.8 °F 73% 29.87 in 10.0 mi West 1.2 mph - N/A   Clear
4:58 AM 72.1 °F - 63.5 °F 74% 29.88 in 10.0 mi NNE 4.6 mph - N/A   Clear
5:58 AM 70.7 °F - 63.1 °F 77% 29.90 in 10.0 mi NNW 2.3 mph - N/A   Clear
6:58 AM 67.5 °F - 60.1 °F 77% 29.91 in 10.0 mi SW 6.9 mph - N/A   Clear
7:58 AM 71.1 °F - 62.2 °F 74% 29.93 in 10.0 mi SSW 4.6 mph - N/A   Clear
8:58 AM 77.0 °F - 63.7 °F 63% 29.93 in 10.0 mi NNW 1.2 mph - N/A   Clear
9:58 AM 82.8 °F 84.2 °F 64.2 °F 53% 29.94 in 10.0 mi North 1.2 mph - N/A   Clear
10:58 AM 86.4 °F 87.3 °F 63.1 °F 46% 29.94 in 10.0 mi North 6.9 mph - N/A   Clear
11:58 AM 89.1 °F 89.3 °F 61.7 °F 40% 29.94 in 10.0 mi Variable 3.5 mph - N/A   Clear
12:58 PM 90.7 °F 91.0 °F 61.5 °F 38% 29.93 in 10.0 mi NNE 6.9 mph - N/A   Clear
1:58 PM 94.3 °F 94.5 °F 60.8 °F 33% 29.89 in 10.0 mi Variable 2.3 mph - N/A   Clear
2:58 PM 95.4 °F 95.3 °F 60.4 °F 31% 29.87 in 10.0 mi Variable 5.8 mph - N/A   Clear
3:58 PM 95.9 °F 94.9 °F 57.7 °F 28% 29.84 in 10.0 mi Variable 1.2 mph - N/A   Clear
4:58 PM 97.5 °F 96.9 °F 58.1 °F 27% 29.82 in 10.0 mi North 11.5 mph - N/A   Clear
5:58 PM 95.4 °F 94.2 °F 57.0 °F 28% 29.82 in 10.0 mi ENE 10.4 mph - N/A   Scattered Clouds
6:58 PM 95.5 °F 93.7 °F 55.0 °F 26% 29.83 in 10.0 mi East 9.2 mph - N/A   Scattered Clouds
7:58 PM 92.3 °F 90.2 °F 54.3 °F 28% 29.82 in 10.0 mi East 6.9 mph - N/A   Clear
8:58 PM 88.0 °F 86.3 °F 55.2 °F 33% 29.84 in 10.0 mi ENE 5.8 mph - N/A   Clear
9:58 PM 84.6 °F 83.4 °F 55.9 °F 37% 29.86 in 10.0 mi ENE 3.5 mph - N/A   Clear
10:58 PM 82.6 °F 81.7 °F 54.5 °F 38% 29.87 in 10.0 mi East 2.3 mph - N/A   Clear
11:58 PM 79.3 °F - 52.2 °F 39% 29.88 in 10.0 mi East 4.6 mph - N/A   Clear